Strona główna
METAR-TAF:

METAR-TAF

Lotnisko :

Anderson, Indiana, Stany Zjednoczone

Szerokość geograficzna: 40-07N, Długość geograficzna: 085-37W, wysokość: 280 m

Aktualna obserwacja pogody

Raport powstał 22 minut temu, godzina 06:35 UTC
Wiatr 4 kt od południe
Temperatura 1°C
Wilgotność 59%
Ciśnienie 1022 hPa
Widzialność: 16.1 km
bezchmurnie

METAR: KAID 230635Z AUTO 18004KT 10SM CLR 01/M06 A3019 RMK AO2 T00071065

czas: 01:57 (06:57 UTC)


TAF: brakujący

Obserwacja i prognoza pogody dla ponad 4000 lotnisk (raport METAR i TAF).

Dostępne stacje oznaczono żółtymi i czerwonymi punktami na mapie.

Najedź kursorem aby zobaczyć nazwę stacji.

Kliknij aby zobaczyć obserwacje i prognozy pogody.

Aby zmienić mapę: kliknij na zielony przycisk z czarnym krzyżykiem, aby powiększyć; na zielony przycisk z myślnikiem, aby pomniejszyć; na zielone strzałki, aby przejść do map sąsiednich.


METAR-TAF: